Location: Austin
(30.3000°N, 97.7500°W)
Time: 11:21:55
(UTC-05:00)

Hubble Space Telescope - Pass Details

Date: 03 April 2024
Orbit: 513 x 517 km, 28.5° (Epoch: 22 April)

Event Time Altitude Azimuth Distance (km) Brightness Sun altitude
Exits shadow 06:34:25 12° 236° (SW) 1,619 2.6 -9.9°
Maximum altitude 06:36:22 16° 205° (SSW) 1,406 2.6 -9.5°
Drops below altitude 10° 06:38:50 10° 166° (SSE) 1,731 3.4 -9.0°
Sets 06:41:45 0° 144° (SE) 2,614 4.6 -8.4°
